Weather History for KECS - June, 2013

Change the Weather History Date:

Wednesday, June 19, 2013

  Actual Average (KCUT) Record (KCUT)
Temperature  
Mean Temperature 70 °F 60 °F  
Max Temperature 82 °F 72 °F 95 °F (1989)
Min Temperature 59 °F 48 °F 26 °F (1946)
Degree Days  
Heating Degree Days 0 6  
Month to date heating degree days 171  
Since 1 June heating degree days 171  
Since 1 July heating degree days 8340  
Cooling Degree Days 6 1  
Month to date cooling degree days 7  
Year to date cooling degree days 8  
Since 1 June cooling degree days 7  
Growing Degree Days 20 (Base 50)    
Moisture  
Dew Point 51 °F    
Average Humidity 47    
Maximum Humidity 61    
Minimum Humidity 34    
Precipitation  
Precipitation 0.00 in 0.09 in 0.85 in (1975)
Month to date precipitation 2.17  
Year to date precipitation 9.28  
Sea Level Pressure  
Sea Level Pressure 29.79 in    
Wind  
Wind Speed 17 mph (ESE)    
Max Wind Speed 29 mph    
Max Gust Speed 41 mph    
Visibility 10 miles    
Events      
T = Trace of Precipitation, MM = Missing Value Source: NWS Daily Summary

Daily Weather History Graph

Daily Weather History Graph

Search for Another Location

Airport or City:

Trip Planner

Search our weather history database for the weather conditions in past years. The results will help you decide how hot, cold, wet, or windy it might be!

Date:

Astronomy

Jun. 19, 2013 Rise Set
Actual Time 5:14 AM MDT 8:42 PM MDT
Civil Twilight 4:38 AM MDT 9:19 PM MDT
Nautical Twilight 3:50 AM MDT 10:06 PM MDT
Astronomical Twilight 2:50 AM MDT 11:07 PM MDT
Moon 4:33 PM MDT (6/19) 2:07 AM MDT (6/19)
Length of Visible Light 16h 40m
Length of Day
15h 28m
Waxing Gibbous, 81% of the Moon is Illuminated
Jun 19
Waxing Gibbous
Jun 23
Full
Jun 29
Last Quarter
Jul 8
New
Jul 15
First Quarter

Hourly Weather History & Observations

Time (MDT) Temp. Heat Index Dew Point Humidity Pressure Visibility Wind Dir Wind Speed Gust Speed Precip Events Conditions
12:15 AM 68.0 °F - 46.4 °F 46% 29.94 in 10.0 mi ESE 12.7 mph - N/A   Clear
12:35 AM 64.4 °F - 46.4 °F 52% 29.94 in 10.0 mi ESE 12.7 mph - N/A   Clear
12:55 AM 62.6 °F - 48.2 °F 59% 29.94 in 10.0 mi ESE 12.7 mph - N/A   Clear
1:15 AM 60.8 °F - 46.4 °F 59% 29.94 in 10.0 mi ESE 9.2 mph - N/A   Clear
1:35 AM 60.8 °F - 46.4 °F 59% 29.94 in 10.0 mi ESE 9.2 mph - N/A   Clear
1:55 AM 59.0 °F - 44.6 °F 59% 29.94 in 10.0 mi ESE 9.2 mph - N/A   Clear
2:15 AM 59.0 °F - 44.6 °F 59% 29.93 in 10.0 mi ESE 10.4 mph - N/A   Clear
2:35 AM 59.0 °F - 44.6 °F 59% 29.93 in 10.0 mi ESE 10.4 mph - N/A   Clear
2:55 AM 60.8 °F - 44.6 °F 55% 29.93 in 10.0 mi ESE 11.5 mph - N/A   Clear
3:15 AM 59.0 °F - 44.6 °F 59% 29.91 in 10.0 mi ESE 9.2 mph - N/A   Clear
3:35 AM 60.8 °F - 44.6 °F 55% 29.91 in 10.0 mi ESE 10.4 mph - N/A   Clear
3:55 AM 60.8 °F - 42.8 °F 52% 29.91 in 10.0 mi ESE 12.7 mph - N/A   Clear
4:15 AM 62.6 °F - 42.8 °F 48% 29.91 in 10.0 mi ESE 15.0 mph - N/A   Clear
4:35 AM 60.8 °F - 42.8 °F 52% 29.92 in 10.0 mi ESE 13.8 mph - N/A   Clear
4:55 AM 60.8 °F - 44.6 °F 55% 29.92 in 10.0 mi ESE 15.0 mph 18.4 mph N/A   Clear
5:15 AM 60.8 °F - 46.4 °F 59% 29.91 in 10.0 mi ESE 15.0 mph 20.7 mph N/A   Clear
5:35 AM 60.8 °F - 46.4 °F 59% 29.91 in 10.0 mi ESE 15.0 mph - N/A   Clear
5:55 AM 60.8 °F - 46.4 °F 59% 29.90 in 10.0 mi ESE 15.0 mph - N/A   Clear
6:15 AM 60.8 °F - 46.4 °F 59% 29.89 in 10.0 mi ESE 11.5 mph 23.0 mph N/A   Clear
6:35 AM 62.6 °F - 46.4 °F 55% 29.88 in 10.0 mi ESE 13.8 mph 21.9 mph N/A   Clear
6:55 AM 62.6 °F - 46.4 °F 55% 29.87 in 10.0 mi ESE 13.8 mph 23.0 mph N/A   Clear
7:15 AM 64.4 °F - 46.4 °F 52% 29.87 in 10.0 mi East 19.6 mph 25.3 mph N/A   Clear
7:35 AM 66.2 °F - 46.4 °F 49% 29.86 in 10.0 mi ESE 16.1 mph 24.2 mph N/A   Clear
7:55 AM 68.0 °F - 46.4 °F 46% 29.85 in 10.0 mi North - - N/A   Clear
8:15 AM 68.0 °F - 46.4 °F 46% 29.85 in 10.0 mi ESE 18.4 mph 26.5 mph N/A   Clear
8:35 AM 69.8 °F - 48.2 °F 46% 29.84 in 10.0 mi North - - N/A   Clear
8:55 AM 69.8 °F - 46.4 °F 43% 29.83 in 10.0 mi SE 19.6 mph 28.8 mph N/A   Clear
9:15 AM 69.8 °F - 48.2 °F 46% 29.82 in 10.0 mi ESE 21.9 mph - N/A   Clear
9:35 AM 71.6 °F - 46.4 °F 41% 29.81 in 10.0 mi SE 19.6 mph - N/A   Clear
9:55 AM 73.4 °F - 48.2 °F 41% 29.80 in 10.0 mi SE 21.9 mph - N/A   Clear
10:15 AM 75.2 °F - 46.4 °F 36% 29.78 in 10.0 mi SE 24.2 mph - N/A   Clear
10:35 AM 75.2 °F - 48.2 °F 38% 29.78 in 10.0 mi North - - N/A   Clear
10:55 AM 77.0 °F - 48.2 °F 36% 29.77 in 7.0 mi SE 21.9 mph 33.4 mph N/A   Clear
11:15 AM 77.0 °F - 48.2 °F 36% 29.77 in 5.0 mi ESE 23.0 mph 29.9 mph N/A   Haze
11:35 AM 77.0 °F - 50.0 °F 39% 29.77 in 10.0 mi SE 27.6 mph 34.5 mph N/A   Clear
11:55 AM 77.0 °F - 50.0 °F 39% 29.76 in 7.0 mi SE 26.5 mph 35.7 mph N/A   Clear
12:15 PM 78.8 °F - 50.0 °F 36% 29.76 in 10.0 mi SE 24.2 mph 33.4 mph N/A   Clear
12:35 PM 78.8 °F - 50.0 °F 36% 29.76 in 7.0 mi SE 26.5 mph - N/A   Clear
12:55 PM 78.8 °F - 51.8 °F 39% 29.75 in 10.0 mi North - - N/A   Clear
1:15 PM 80.6 °F - 50.0 °F 34% 29.74 in 7.0 mi SE 24.2 mph - N/A   Clear
1:35 PM 80.6 °F - 51.8 °F 37% 29.74 in 10.0 mi SE 21.9 mph - N/A   Clear
1:55 PM 80.6 °F - 51.8 °F 37% 29.74 in 10.0 mi SE 26.5 mph 32.2 mph N/A   Clear
2:15 PM 82.4 °F - 51.8 °F 35% 29.74 in 10.0 mi ESE 24.2 mph - N/A   Clear
2:35 PM 82.4 °F - 51.8 °F 35% 29.73 in 10.0 mi SE 20.7 mph 31.1 mph N/A   Clear
2:55 PM 82.4 °F - 51.8 °F 35% 29.73 in 10.0 mi SE 21.9 mph - N/A   Clear
3:15 PM 82.4 °F - 51.8 °F 35% 29.72 in 10.0 mi ESE 26.5 mph 33.4 mph N/A   Clear
3:35 PM 82.4 °F - 51.8 °F 35% 29.70 in 10.0 mi ESE 24.2 mph 35.7 mph N/A   Clear
3:55 PM 82.4 °F - 51.8 °F 35% 29.70 in 10.0 mi ESE 27.6 mph - N/A   Clear
4:15 PM 82.4 °F 81.4 °F 53.6 °F 37% 29.70 in 10.0 mi SE 20.7 mph 35.7 mph N/A   Clear
4:35 PM 82.4 °F 81.4 °F 53.6 °F 37% 29.69 in 10.0 mi ESE 26.5 mph 33.4 mph N/A   Clear
4:55 PM 82.4 °F 81.4 °F 53.6 °F 37% 29.69 in 10.0 mi ESE 28.8 mph 36.8 mph N/A   Clear
5:15 PM 80.6 °F 80.5 °F 55.4 °F 42% 29.69 in 10.0 mi ESE 26.5 mph 32.2 mph N/A   Clear
5:35 PM 80.6 °F 80.5 °F 55.4 °F 42% 29.69 in 10.0 mi ESE 19.6 mph 33.4 mph N/A   Clear
5:55 PM 78.8 °F - 55.4 °F 44% 29.69 in 10.0 mi North - - N/A   Clear
6:15 PM 78.8 °F - 55.4 °F 44% 29.71 in 10.0 mi North - - N/A   Clear
6:35 PM 80.6 °F 80.5 °F 55.4 °F 42% 29.69 in 10.0 mi ESE 28.8 mph 38.0 mph N/A   Clear
6:55 PM 80.6 °F 80.5 °F 55.4 °F 42% 29.67 in 10.0 mi ESE 27.6 mph - N/A   Clear
7:15 PM 78.8 °F - 55.4 °F 44% 29.67 in 10.0 mi East 21.9 mph 35.7 mph N/A   Clear
7:35 PM 77.0 °F - 57.2 °F 50% 29.67 in 10.0 mi East 18.4 mph 29.9 mph N/A   Clear
7:55 PM 77.0 °F - 57.2 °F 50% 29.67 in 10.0 mi North - - N/A   Clear
8:15 PM 77.0 °F - 59.0 °F 54% 29.67 in 10.0 mi North - - N/A   Clear
8:35 PM 77.0 °F - 59.0 °F 54% 29.68 in 10.0 mi North - - N/A   Clear
8:55 PM 77.0 °F - 59.0 °F 54% 29.68 in 10.0 mi ESE 25.3 mph - N/A   Clear
9:15 PM 77.0 °F - 59.0 °F 54% 29.69 in 10.0 mi East 24.2 mph 41.4 mph N/A   Clear
9:35 PM 77.0 °F - 59.0 °F 54% 29.69 in 10.0 mi East 26.5 mph 33.4 mph N/A   Clear
9:55 PM 75.2 °F - 59.0 °F 57% 29.69 in 10.0 mi North - - N/A   Clear
10:15 PM 75.2 °F - 59.0 °F 57% 29.69 in 10.0 mi East 23.0 mph 32.2 mph N/A   Clear
10:35 PM 73.4 °F - 59.0 °F 61% 29.69 in 10.0 mi East 21.9 mph 33.4 mph N/A   Clear
10:55 PM 73.4 °F - 57.2 °F 57% 29.70 in 10.0 mi North - - N/A   Clear
11:15 PM 73.4 °F - 57.2 °F 57% 29.70 in 10.0 mi North - - N/A   Clear
11:35 PM 73.4 °F - 55.4 °F 53% 29.70 in 10.0 mi North - - N/A   Clear
11:55 PM 73.4 °F - 55.4 °F 53% 29.72 in 10.0 mi North - - N/A   Clear